IZ5ILJ Weather Reports


Display with metric or nautical units.
time (UTC)temp
F
wind
direction
speed
MPH
gust
MPH
rain 1hr
in
rain 24hr
in
rain mn
in
humidity
%
barometer
mb
20260506165641 67 202 5.0 8.0 0.00 0.32 0.05 61 1007.1
20260506164741 67 191 6.0 13.0 0.00 0.41 0.05 61 1007.4
20260506162941 68 157 9.0 17.0 0.00 0.46 0.05 59 1007.6
20260506162041 68 157 11.0 23.0 0.00 0.46 0.05 57 1007.4
20260506161141 69 177 10.0 18.0 0.00 0.56 0.05 55 1007.2
20260506160241 70 181 8.0 11.0 0.00 0.56 0.05 55 1007.1
20260506155341 69 135 10.0 16.0 0.00 0.57 0.05 57 1007.0
20260506154441 69 135 10.0 16.0 0.00 0.57 0.05 57 1007.3
20260506153541 69 135 10.0 16.0 0.00 0.57 0.05 57 1007.1
20260506152641 69 136 10.0 16.0 0.00 0.57 0.05 57 1007.4
20260506151741 69 160 9.0 16.0 0.00 0.57 0.05 57 1007.4
20260506145942 69 132 8.0 14.0 0.00 0.57 0.05 56 1007.5
20260506131135 68 136 10.0 18.0 0.00 0.57 0.05 60 1007.4
20260506130235 68 195 10.0 15.0 0.00 0.57 0.05 58 1007.7
20260506124435 66 111 8.0 12.0 0.00 0.57 0.05 71 1007.7
20260506123535 66 111 8.0 12.0 0.00 0.57 0.05 71 1008.0
20260506122635 66 111 8.0 12.0 0.00 0.57 0.05 71 1007.9
20260506120835 66 111 8.0 12.0 0.00 0.57 0.05 71 1007.7
20260506115935 66 111 8.0 12.0 0.00 0.57 0.05 71 1007.7
20260506115035 66 111 8.0 12.0 0.00 0.57 0.05 71 1007.8
20260506114135 66 116 8.0 13.0 0.00 0.57 0.05 71 1007.7
20260506113235 66 154 7.0 13.0 0.00 0.57 0.05 71 1007.8
20260506111435 65 111 7.0 10.0 0.00 0.57 0.05 73 1007.8
20260506110535 65 128 10.0 15.0 0.00 0.57 0.05 73 1008.1
20260506104735 65 118 11.0 21.0 0.00 0.57 0.05 73 1008.2
20260506102935 65 129 9.0 17.0 0.00 0.57 0.05 75 1008.0
20260506101659 65 132 11.0 21.0 0.00 0.57 0.05 72 1008.6
20260506095859 65 112 12.0 23.0 0.00 0.57 0.05 72 1008.4